Content
SEND FEEDBACK

Daily
Averages
Monthly
Summary
United States of America

ST. LOUIS, MISSOURI


Home > North America > United States > Missouri
Elevation: 535 feet     Latitude: 38 45N     Longitude: 090 22W

WEATHER
 
SELECT A DAY
Number of Records: 200,489;   Date Range: 1/1/95 - 11/22/14
 
SHARE

PRINT THIS DATA

[ ← Previous Day ]
WEATHER ALMANAC - JANUARY 10, 2013
[ Next Day → ]
[ °C ]   °F
Weather ElementAverageHighLow
Temperature47.3 °F53.1 °F (11:54 pm)39 °F (1:54 am)
Dewpoint43.2 °F51.8 °F (10:24 pm)28.9 °F (2:54 am)
Humidity87 %100 % (7:03 pm)53 % (3:54 am)
Barometer30.02 in30.42 in (1:54 am)29.78 in (10:54 pm)
Wind Speed5.9 mph12.7 mph (7:47 am)
Wind Gust19.6 mph (7:54 am)
Weather ElementAverage
Visibility5 mi
Wind DirectionESE (104 °)

Weather ElementTotal
Precipitation0.56 in
Heating Degree Days19 (Base 65)
Averaged from 42 records on January 10, 2013
WEATHER CONDITIONS BREAKOUT
WIND DIRECTION BREAKOUT
WEATHER BY HOUR - JANUARY 10, 2013
[ °C ]   °F
Local TimeTemperatureDewpointHumidityBarometerVisibilityWind DirectionWind SpeedGust SpeedPrecipitationEventsConditions
1:54 AM39.0 °F30.9 °F73 %30.42 in10.0 miENE (70°)5.8 mphClear
2:54 AM44.1 °F28.9 °F55 %30.41 in10.0 miENE (70°)4.6 mphClear
3:54 AM45.0 °F28.9 °F53 %30.37 in10.0 miEast (80°)8.1 mphPartly Cloudy
4:54 AM45.0 °F30.0 °F56 %30.34 in10.0 miEast (80°)8.1 mphOvercast
5:54 AM43.0 °F33.1 °F68 %30.32 in10.0 miEast (80°)10.4 mph0.00 inRainLight Rain
6:47 AM44.6 °F30.2 °F57 %30.28 in10.0 miEast (90°)10.4 mph0.00 inOvercast
6:54 AM45.0 °F30.9 °F58 %30.30 in10.0 miEast (100°)10.4 mph0.00 inOvercast
7:47 AM44.6 °F35.6 °F71 %30.28 in10.0 miEast (90°)12.7 mph0.00 inOvercast
7:54 AM43.0 °F36.0 °F76 %30.28 in9.0 miEast (90°)11.5 mph19.6 mph0.00 inOvercast
8:54 AM42.1 °F37.9 °F85 %30.27 in6.0 miEast (90°)8.1 mph0.02 inRainLight Rain
9:54 AM42.1 °F39.0 °F89 %30.24 in4.0 miESE (110°)8.1 mph0.02 inOvercast
10:11 AM42.8 °F39.2 °F87 %30.21 in9.0 miESE (110°)8.1 mphOvercast
10:42 AM42.8 °F39.2 °F87 %30.21 in10.0 miEast (100°)4.6 mphOvercast
10:54 AM43.0 °F39.9 °F89 %30.20 in10.0 miEast (100°)10.4 mphOvercast
11:54 AM44.1 °F42.1 °F93 %30.12 in5.0 miEast (100°)10.4 mphOvercast
12:47 PM44.6 °F42.8 °F93 %30.08 in2.5 miEast (90°)8.1 mphOvercast
12:54 PM45.0 °F43.0 °F93 %30.08 in1.8 miEast (100°)8.1 mphOvercast
1:05 PM44.6 °F42.8 °F93 %30.07 in0.8 miESE (110°)8.1 mphOvercast
1:54 PM46.0 °F44.1 °F93 %30.06 in0.8 miESE (120°)9.2 mphOvercast
2:54 PM46.9 °F45.0 °F93 %30.01 in0.5 miESE (110°)5.8 mphFogFog
3:54 PM46.9 °F46.0 °F97 %29.98 in0.8 miNE (40°)3.5 mph0.00 inLight Drizzle
4:54 PM46.9 °F46.0 °F97 %29.95 in0.5 miENE (70°)5.8 mph0.01 inFogFog
5:54 PM46.9 °F46.0 °F97 %29.95 in0.8 miCalm0.00 inMist
6:54 PM46.9 °F46.0 °F97 %29.92 in0.8 miENE (70°)5.8 mph0.01 inOvercast
7:03 PM46.4 °F46.4 °F100 %29.91 in1.2 miENE (70°)5.8 mphOvercast
7:14 PM48.2 °F46.4 °F93 %29.91 in3.0 miEast (80°)3.5 mphOvercast
7:54 PM51.1 °F50.0 °F96 %29.88 in6.0 miEast (100°)3.5 mph0.01 inOvercast
8:54 PM51.1 °F50.0 °F96 %29.84 in4.0 miNNE (30°)3.5 mph0.03 inRainLight Rain
9:05 PM51.8 °F48.2 °F88 %29.82 in2.0 miENE (60°)4.6 mph0.02 inRainLight Rain
9:29 PM51.8 °F50.0 °F94 %29.80 in3.0 miEast (80°)4.6 mph0.03 inRainLight Rain
9:38 PM51.8 °F50.0 °F94 %29.81 in2.0 miCalm0.06 inRainRain
9:50 PM51.8 °F50.0 °F94 %29.80 in3.0 miCalm0.09 inRainRain
9:54 PM51.1 °F50.0 °F96 %29.80 in2.0 miNorth (350°)5.8 mph0.10 inRainRain
10:24 PM51.8 °F51.8 °F100 %29.79 in3.0 miCalm0.01 inRainLight Rain
10:46 PM51.8 °F48.2 °F88 %29.79 in1.8 miWNW (290°)3.5 mph0.04 inRainLight Rain
10:54 PM51.1 °F50.0 °F96 %29.78 in1.5 miCalm0.06 inRainLight Rain
11:10 PM51.8 °F51.8 °F100 %29.79 in3.0 miSouth (180°)5.8 mph0.01 inRainLight Rain
11:17 PM51.8 °F50.0 °F94 %29.79 in6.0 miWNW (300°)8.1 mphRainLight Rain
11:22 PM50.0 °F48.2 °F94 %29.79 in2.5 miCalm0.01 inOvercast
11:30 PM51.8 °F50.0 °F94 %29.78 in5.0 miWest (260°)3.5 mph0.01 inMostly Cloudy
11:40 PM51.8 °F50.0 °F94 %29.79 in9.0 miWest (260°)4.6 mph0.01 inScattered Clouds
11:54 PM53.1 °F51.1 °F93 %29.79 in10.0 miWSW (240°)4.6 mph0.01 inClear
Hourly data recorded from KSUS, located miles away from St. Louis, Missouri







STORIES FROM OUR PARTNERS